Flag for Turkey Weather past 2 weeks in Izmir, Turkey

Now
75 °F

Broken clouds.


Feels Like: 78 °F
Forecast: 60 / 76 °F
Wind: 15 mph from North

Location: Izmir / Adnan Menderes

Current Time: May 28, 2015 at 3:58:24 PM

Latest Report: May 28, 2015 at 3:20 PM


Visibility: N/A

Pressure: 29.74 "Hg

Humidity: 57%

Dew point: 59 °F

Location of IzmirLocation

Historic Weather in Izmir — Graph

°F

Izmir temperature yesterday

Maximum temperature yesterday: 75 °F (at 2:20 PM)
Minimum temperature yesterday: 61 °F (at 7:50 AM)
Average temperature yesterday: 67 °F

Past Weeks' High & Low Weather Summary

 TemperatureHumidityPressure
High91 °F (May 23, 2:50 PM)100% (May 27, 7:50 AM)30.15 "Hg (May 27, 7:50 AM)
Low52 °F (May 14, 4:20 AM)13% (May 19, 12:50 PM)29.65 "Hg (May 27, 4:50 PM)
Average70 °F58%29.88 "Hg
* Reported May 13 2:20 PM — May 28 2:20 PM, Izmir, Weather by CustomWeather, © 2015

Note: Actual official high and low records may vary slightly from our data, if they occured in-between our weather recording intervals... More about our weather records

Advertising

Izmir weather history for previous 24 hours

 ConditionsComfort  
Time TempWeatherWind HumidityBarometerVisibility
2:20 PM
Thu, May 28
73 °FBroken clouds.7 mph61%29.74 "HgN/A
1:50 PM70 °FThunderstorms. Broken clouds.9 mph78%29.74 "HgN/A
1:20 PM72 °FThunderstorms. Broken clouds.10 mph65%29.74 "HgN/A
12:50 PM73 °FBroken clouds.8 mph61%29.74 "HgN/A
12:20 PM75 °FBroken clouds.6 mph57%29.74 "HgN/A
11:50 AM73 °FBroken clouds.9 mph61%29.74 "HgN/A
11:20 AM73 °FBroken clouds.7 mph61%29.74 "HgN/A
11:04 AM75 °FSprinkles. Broken clouds.5 mph54%29.74 "HgN/A
10:50 AM75 °FBroken clouds.3 mph54%29.77 "HgN/A
10:20 AM73 °FScattered clouds.2 mph57%29.77 "HgN/A
9:50 AM72 °FScattered clouds.2 mph69%29.77 "HgN/A
9:20 AM70 °FScattered clouds.2 mph73%29.77 "HgN/A
8:50 AM68 °FPassing clouds.3 mph78%29.77 "HgN/A
8:20 AM64 °FPassing clouds.2 mph83%29.74 "HgN/A
7:50 AM64 °FPassing clouds.No wind83%29.74 "HgN/A
7:20 AM61 °FScattered clouds.1 mph94%29.74 "HgN/A
6:50 AM59 °FPassing clouds.No wind94%29.74 "HgN/A
6:20 AM57 °FPassing clouds.No wind94%29.74 "HgN/A
5:50 AM59 °FPartly cloudy.No wind94%29.74 "HgN/A
5:20 AM57 °FPartly cloudy.No wind94%29.74 "HgN/A
4:50 AM59 °FPartly cloudy.No wind88%29.74 "HgN/A
4:20 AM57 °FPartly cloudy.No wind94%29.74 "HgN/A
3:50 AM59 °FPartly cloudy.2 mph94%29.74 "HgN/A
3:20 AM59 °FPartly cloudy.6 mph94%29.71 "HgN/A
2:50 AM59 °FPartly cloudy.No wind94%29.74 "HgN/A
2:20 AM61 °FPartly cloudy.6 mph88%29.74 "HgN/A
1:50 AM61 °FPassing clouds.No wind88%29.74 "HgN/A
1:20 AM61 °FPassing clouds.2 mph88%29.74 "HgN/A
12:50 AM63 °FPassing clouds.3 mph88%29.74 "HgN/A
12:20 AM61 °FPassing clouds.3 mph88%29.74 "HgN/A
11:50 PM
Wed, May 27
64 °FPassing clouds.6 mph83%29.74 "HgN/A
11:20 PM66 °FPassing clouds.5 mph73%29.74 "HgN/A
10:50 PM66 °FPassing clouds.No wind73%29.74 "HgN/A
10:20 PM66 °FPassing clouds.5 mph73%29.74 "HgN/A
9:50 PM68 °FPassing clouds.7 mph69%29.71 "HgN/A
9:20 PM68 °FScattered clouds.8 mph69%29.71 "HgN/A
8:50 PM70 °FScattered clouds.6 mph64%29.71 "HgN/A
8:20 PM70 °FScattered clouds.8 mph64%29.68 "HgN/A
7:50 PM72 °FScattered clouds.12 mph61%29.68 "HgN/A
7:20 PM72 °FScattered clouds.14 mph65%29.68 "HgN/A
6:50 PM73 °FBroken clouds.14 mph57%29.68 "HgN/A
6:20 PM75 °FBroken clouds.16 mph54%29.65 "HgN/A
5:50 PM75 °FBroken clouds.14 mph54%29.65 "HgN/A
5:20 PM75 °FBroken clouds.12 mph54%29.65 "HgN/A
4:50 PM75 °FBroken clouds.12 mph50%29.65 "HgN/A
4:20 PM73 °FBroken clouds.13 mph61%29.68 "HgN/A
3:50 PM73 °FBroken clouds.12 mph61%29.68 "HgN/A
3:20 PM72 °FBroken clouds.12 mph73%29.68 "HgN/A
Weather by CustomWeather, © 2015

See weather overviewHow to use our weather pages